Weather History for Olean, NY

Change the Weather History Date:

Tuesday, June 11, 2013

  Actual Average (KBFD) Record (KBFD)
Temperature  
Mean Temperature 60 °F 61 °F  
Max Temperature 62 °F 73 °F 86 °F (1968)
Min Temperature 59 °F 49 °F 25 °F (1972)
Degree Days  
Heating Degree Days 4 2  
Month to date heating degree days 35  
Since 1 June heating degree days 35  
Since 1 July heating degree days 7663  
Cooling Degree Days 0 1  
Month to date cooling degree days 11  
Year to date cooling degree days 21  
Since 1 June cooling degree days 11  
Growing Degree Days 10 (Base 50)    
Moisture  
Dew Point 58 °F    
Average Humidity 93    
Maximum Humidity 100    
Minimum Humidity 82    
Precipitation  
Precipitation 0.00 in 0.17 in 2.41 in (1986)
Month to date precipitation 1.81  
Year to date precipitation 18.55  
Sea Level Pressure  
Sea Level Pressure 29.81 in    
Wind  
Wind Speed 6 mph (West)    
Max Wind Speed 12 mph    
Max Gust Speed 23 mph    
Visibility 9 miles    
Events Rain    
T = Trace of Precipitation, MM = Missing Value Source: NWS Daily Summary

Daily Weather History Graph

Daily Weather History Graph

Search for Another Location

Airport:

Trip Planner

Search our weather history database for the weather conditions in past years. The results will help you decide how hot, cold, wet, or windy it might be!

Date:

Astronomy

Jun. 11, 2013 Rise Set
Actual Time 5:36 AM EDT 8:49 PM EDT
Civil Twilight 5:02 AM EDT 9:24 PM EDT
Nautical Twilight 4:17 AM EDT 10:08 PM EDT
Astronomical Twilight 3:24 AM EDT 11:02 PM EDT
Moon 8:20 AM EDT (6/11) 10:48 PM EDT (6/11)
Length of Visible Light 16h 22m
Length of Day
15h 13m
Waxing Crescent, 8% of the Moon is Illuminated
Jun 11
Waxing Crescent
Jun 16
First Quarter
Jun 23
Full
Jun 30
Last Quarter
Jul 8
New

Hourly Weather History & Observations

Time (EDT) Temp. Dew Point Humidity Pressure Visibility Wind Dir Wind Speed Gust Speed Precip Events Conditions
12:15 AM 62.6 °F 62.6 °F 100% 29.78 in 10.0 mi SW 3.5 mph - N/A   Mostly Cloudy
12:35 AM 60.8 °F 60.8 °F 100% 29.78 in 10.0 mi Calm Calm - N/A   Overcast
12:55 AM 60.8 °F 60.8 °F 100% 29.78 in 7.0 mi WSW 5.8 mph - N/A Rain Light Rain
1:15 AM 62.6 °F 60.8 °F 94% 29.78 in 10.0 mi SW 4.6 mph - N/A   Overcast
1:35 AM 60.8 °F 60.8 °F 100% 29.77 in 10.0 mi WSW 8.1 mph - N/A   Overcast
1:55 AM 60.8 °F 60.8 °F 100% 29.77 in 10.0 mi SW 6.9 mph - N/A   Overcast
2:15 AM 60.8 °F 60.8 °F 100% 29.77 in 10.0 mi SW 4.6 mph - N/A   Overcast
2:35 AM 60.8 °F 59.0 °F 94% 29.76 in 10.0 mi SW 6.9 mph - N/A   Overcast
2:55 AM 59.0 °F 59.0 °F 100% 29.76 in 10.0 mi WSW 5.8 mph - N/A   Overcast
3:15 AM 60.8 °F 59.0 °F 94% 29.75 in 10.0 mi SW 5.8 mph - N/A   Overcast
3:35 AM 59.0 °F 59.0 °F 100% 29.75 in 10.0 mi SW 8.1 mph - N/A   Overcast
3:55 AM 60.8 °F 59.0 °F 94% 29.74 in 10.0 mi WSW 8.1 mph - N/A   Overcast
4:15 AM 60.8 °F 59.0 °F 94% 29.74 in 10.0 mi WSW 5.8 mph - N/A   Overcast
4:35 AM 60.8 °F 59.0 °F 94% 29.74 in 10.0 mi WSW 6.9 mph - N/A   Overcast
4:55 AM 60.8 °F 59.0 °F 94% 29.74 in 10.0 mi SW 5.8 mph - N/A   Overcast
5:15 AM 60.8 °F 59.0 °F 94% 29.73 in 10.0 mi WSW 5.8 mph - N/A   Overcast
5:35 AM 60.8 °F 59.0 °F 94% 29.73 in 10.0 mi WSW 4.6 mph - N/A   Overcast
5:55 AM 60.8 °F 59.0 °F 94% 29.73 in 7.0 mi WSW 5.8 mph - N/A Rain Light Rain
6:15 AM 60.8 °F 59.0 °F 94% 29.73 in 5.0 mi WSW 5.8 mph - N/A   Drizzle
6:35 AM 60.8 °F 59.0 °F 94% 29.74 in 7.0 mi WSW 6.9 mph - N/A   Overcast
6:55 AM 59.0 °F 59.0 °F 100% 29.74 in 4.0 mi WSW 5.8 mph - N/A   Heavy Drizzle
12:15 PM 59.0 °F 57.2 °F 94% 29.80 in 4.0 mi WNW 9.2 mph 20.7 mph N/A   Drizzle
12:35 PM 59.0 °F 57.2 °F 94% 29.79 in 4.0 mi WNW 10.4 mph 21.9 mph N/A   Overcast
12:55 PM 59.0 °F 59.0 °F 100% 29.79 in 10.0 mi WNW 6.9 mph - N/A   Overcast
1:15 PM 59.0 °F 59.0 °F 100% 29.80 in 3.0 mi West 9.2 mph 16.1 mph N/A   Drizzle
1:35 PM 60.8 °F 59.0 °F 94% 29.80 in 10.0 mi West 6.9 mph - N/A   Overcast
1:55 PM 60.8 °F 59.0 °F 94% 29.80 in 10.0 mi WNW 8.1 mph - N/A   Overcast
2:15 PM 59.0 °F 57.2 °F 94% 29.81 in 10.0 mi WNW 4.6 mph - N/A Rain Rain
2:35 PM 59.0 °F 59.0 °F 100% 29.81 in 5.0 mi WNW 5.8 mph - N/A   Light Drizzle
2:55 PM 59.0 °F 57.2 °F 94% 29.81 in 10.0 mi WNW 8.1 mph 17.3 mph N/A   Overcast
3:15 PM 60.8 °F 59.0 °F 94% 29.82 in 10.0 mi WNW 9.2 mph 18.4 mph N/A   Overcast
3:35 PM 60.8 °F 59.0 °F 94% 29.82 in 10.0 mi WNW 9.2 mph 17.3 mph N/A   Overcast
3:55 PM 60.8 °F 57.2 °F 88% 29.82 in 10.0 mi WNW 10.4 mph 23.0 mph N/A   Overcast
4:15 PM 60.8 °F 57.2 °F 88% 29.83 in 10.0 mi WNW 8.1 mph - N/A   Overcast
4:35 PM 60.8 °F 57.2 °F 88% 29.83 in 10.0 mi WNW 5.8 mph - N/A   Overcast
4:55 PM 60.8 °F 57.2 °F 88% 29.83 in 10.0 mi West 3.5 mph - N/A   Overcast
5:15 PM 60.8 °F 57.2 °F 88% 29.83 in 10.0 mi WNW 4.6 mph - N/A   Overcast
5:35 PM 60.8 °F 57.2 °F 88% 29.83 in 10.0 mi West 5.8 mph - N/A   Overcast
5:55 PM 62.6 °F 57.2 °F 82% 29.83 in 10.0 mi WNW 11.5 mph 18.4 mph N/A   Overcast
6:15 PM 60.8 °F 57.2 °F 88% 29.83 in 10.0 mi WNW 5.8 mph - N/A   Overcast
6:35 PM 60.8 °F 57.2 °F 88% 29.83 in 10.0 mi West 4.6 mph - N/A   Overcast
6:55 PM 60.8 °F 57.2 °F 88% 29.84 in 10.0 mi West 4.6 mph - N/A   Overcast
7:15 PM 60.8 °F 57.2 °F 88% 29.84 in 10.0 mi WSW 4.6 mph - N/A   Overcast
7:35 PM 60.8 °F 57.2 °F 88% 29.85 in 10.0 mi West 4.6 mph - N/A   Overcast
7:55 PM 60.8 °F 57.2 °F 88% 29.85 in 10.0 mi West 4.6 mph - N/A   Overcast
8:15 PM 60.8 °F 57.2 °F 88% 29.85 in 10.0 mi West 3.5 mph - N/A   Overcast
8:35 PM 60.8 °F 57.2 °F 88% 29.85 in 10.0 mi West 6.9 mph - N/A   Overcast
8:55 PM 60.8 °F 57.2 °F 88% 29.86 in 10.0 mi West 3.5 mph - N/A   Overcast
9:15 PM 60.8 °F 57.2 °F 88% 29.86 in 10.0 mi West 5.8 mph - N/A   Overcast
9:35 PM 60.8 °F 57.2 °F 88% 29.86 in 10.0 mi WSW 3.5 mph - N/A   Overcast
9:55 PM 60.8 °F 57.2 °F 88% 29.87 in 10.0 mi West 3.5 mph - N/A   Overcast
10:15 PM 59.0 °F 57.2 °F 94% 29.88 in 10.0 mi West 6.9 mph - N/A   Overcast
10:35 PM 59.0 °F 57.2 °F 94% 29.88 in 10.0 mi West 4.6 mph - N/A   Overcast
10:55 PM 59.0 °F 57.2 °F 94% 29.88 in 10.0 mi WNW 5.8 mph - N/A   Overcast
11:15 PM 59.0 °F 57.2 °F 94% 29.88 in 10.0 mi WNW 9.2 mph - N/A   Overcast
11:35 PM 59.0 °F 57.2 °F 94% 29.88 in 10.0 mi WNW 6.9 mph - N/A   Overcast
11:55 PM 59.0 °F 57.2 °F 94% 29.89 in 10.0 mi WNW 6.9 mph - N/A   Overcast